This is the latest recevied weather packets stored in our database for station/object KC1OEK-13. If no packets are shown the sender has not sent any weather packets the latest 1 day(s).
| Time | Temp. | Humidity | Pressure | Rain* | Wind** | Luminosity | Snow |
|---|---|---|---|---|---|---|---|
| 1778031062 | 18.33° C | 67% | 1011.5 hPa | 0 mm | 0.45 m/s, 295° | 0 W/m² | - |
| 1778030758 | 18.33° C | 66% | 1011.7 hPa | 0 mm | 0.45 m/s, 277° | 0 W/m² | - |
| 1778030454 | 17.78° C | 66% | 1011.6 hPa | 0 mm | 2.24 m/s, 219° | 0 W/m² | - |
| 1778030152 | 17.78° C | 67% | 1011.5 hPa | 0 mm | 1.34 m/s, 283° | 0 W/m² | - |
| 1778029843 | 17.78° C | 66% | 1011.5 hPa | 0 mm | 0 m/s | 0 W/m² | - |
| 1778029542 | 17.78° C | 66% | 1011.5 hPa | 0 mm | 0 m/s | 0 W/m² | - |
| 1778029238 | 18.33° C | 66% | 1011.4 hPa | 0 mm | 0.45 m/s, 356° | 0 W/m² | - |
| 1778028935 | 18.33° C | 65% | 1011.3 hPa | 0 mm | 0.45 m/s, 353° | 0 W/m² | - |
| 1778028631 | 18.33° C | 65% | 1011.2 hPa | 0 mm | 0 m/s | 0 W/m² | - |
| 1778028329 | 18.89° C | 64% | 1011.2 hPa | 0 mm | 0 m/s | 0 W/m² | - |
| 1778028026 | 18.89° C | 63% | 1011 hPa | 0 mm | 0.45 m/s, 319° | 0 W/m² | - |
| 1778027722 | 18.89° C | 63% | 1011 hPa | 0 mm | 1.79 m/s, 203° | 0 W/m² | - |
| 1778027418 | 18.89° C | 64% | 1011 hPa | 0 mm | 0.45 m/s, 304° | 0 W/m² | - |
| 1778027114 | 18.89° C | 63% | 1010.8 hPa | 0 mm | 0.45 m/s, 317° | 0 W/m² | - |
| 1778026810 | 18.89° C | 63% | 1010.8 hPa | 0 mm | 0.89 m/s, 239° | 0 W/m² | - |
| 1778026507 | 19.44° C | 62% | 1010.6 hPa | 0 mm | 0.89 m/s, 345° | 0 W/m² | - |
| 1778026204 | 19.44° C | 61% | 1010.7 hPa | 0 mm | 0.89 m/s, 287° | 0 W/m² | - |
| 1778025901 | 20° C | 61% | 1010.4 hPa | 0 mm | 1.34 m/s, 268° | 1 W/m² | - |
| 1778025598 | 20° C | 61% | 1010.5 hPa | 0 mm | 0.89 m/s, 58° | 1 W/m² | - |
| 1778025297 | 20° C | 60% | 1010.5 hPa | 0 mm | 2.24 m/s, 210° | 2 W/m² | - |
| 1778024993 | 20° C | 60% | 1010.5 hPa | 0 mm | 1.34 m/s, 314° | 3 W/m² | - |
| 1778024690 | 20° C | 60% | 1010.3 hPa | 0 mm | 0.89 m/s, 347° | 4 W/m² | - |
| 1778024387 | 20° C | 60% | 1010.3 hPa | 0 mm | 0.89 m/s, 14° | 6 W/m² | - |
| 1778024085 | 20.56° C | 60% | 1010.3 hPa | 0 mm | 0.89 m/s, 286° | 8 W/m² | - |
| 1778023782 | 20.56° C | 59% | 1010.1 hPa | 0 mm | 1.79 m/s, 191° | 12 W/m² | - |
* Rain latest hour (hover to see other rain measurements)
** Current wind speed in m/s (hover to see current wind gust speed)